Weather observations for the past three days for
Topeka, Forbes Field
Imperial (Metric)
Date Time (cdt) Wind (mph) Vis. (mi.) Weather Sky Cond. Temperature (ºF) Relative Humidity Wind Chill (°F) Heat Index (°F) Pressure Precipitation (in)
Air Dwpt 6 hour altimeter (in) sea level (mb) 1 hr 3 hr 6 hr
Max. Min.
06 00:53 SE 5 10.00 Fair CLR 79 70 93.9 79 74% 82 29.95 1012.6
05 23:53 SE 5 10.00 A Few Clouds FEW085 80.1 70 71% 83 29.95 1012.8
05 22:53 E 6 10.00 Fair CLR 80.1 70 71% 83 29.94 1012.4
05 21:53 Calm 10.00 Fair CLR 79 71.1 77% 82 29.93 1012.1
05 20:53 Calm 10.00 Fair CLR 82 71.1 69% 86 29.9 1011.2
05 19:53 Calm 10.00 Fair CLR 87.1 70 57% 92 29.89 1010.8
05 18:53 S 3 10.00 Fair CLR 95 66 102 95 39% 98 29.89 1010.7
05 17:53 S 8 10.00 Fair CLR 99 64 32% 102 29.89 1010.7
05 16:53 SE 6 10.00 Fair CLR 99 64 32% 102 29.89 1011.0
05 15:53 SE 8 10.00 A Few Clouds FEW080 100 64 31% 103 29.91 1011.5
05 12:53 S 5 10.00 Fair CLR 98.1 66.9 99 69.1 36% 103 29.97 1013.6
05 11:53 Vrbl 3 10.00 Fair CLR 95 69.1 43% 101 29.99 1014.0
05 10:53 Vrbl 5 10.00 Fair CLR 91 69.1 49% 96 29.98 1014.0
05 09:53 SE 6 10.00 Fair CLR 84.9 70 61% 89 29.97 1013.6
05 08:53 SE 3 10.00 Fair CLR 80.1 69.1 69% 83 29.96 1013.3
05 07:53 SE 3 10.00 Fair CLR 73 68 84% 29.94 1012.7
05 06:53 SE 5 10.00 Fair CLR 70 66.9 75 69.1 90% 29.93 1012.0
05 05:53 Calm 10.00 Fair CLR 70 66.9 90% 29.92 1011.8
05 04:53 S 3 10.00 Fair CLR 70 66.9 90% 29.92 1011.8
05 03:53 S 3 10.00 Fair CLR 71.1 66.9 87% 29.93 1012.1
05 02:53 Calm 10.00 Fair CLR 72 66.9 84% 29.93 1012.1
05 01:53 Calm 10.00 Fair CLR 73.9 68 82% 29.93 1012.2
05 00:53 Calm 10.00 Fair CLR 73.9 68 95 73.9 82% 29.93 1012.2
04 23:53 SE 3 10.00 Fair CLR 77 68 74% 79 29.93 1012.1
04 22:53 S 5 10.00 Fair CLR 79 66.9 67% 81 29.92 1011.9
04 21:53 SE 5 10.00 Fair CLR 77 69.1 77% 79 29.91 1011.6
04 20:53 Calm 10.00 Fair CLR 81 69.1 67% 84 29.89 1011.1
04 19:53 S 5 10.00 Fair CLR 87.1 66 50% 89 29.88 1010.7
04 18:53 S 8 10.00 Fair CLR 95 64 99 93.9 36% 97 29.89 1010.9
04 17:53 S 12 10.00 Fair CLR 97 64 34% 99 29.9 1010.9
04 16:53 S 10 10.00 Fair CLR 98.1 66 35% 102 29.9 1011.0
04 15:53 S 14 10.00 Fair CLR 98.1 64.9 34% 101 29.9 1011.2
04 14:53 S 17 G 23 10.00 Fair CLR 97 66 36% 101 29.91 1011.4
04 13:53 S 13 10.00 Fair CLR 95 68 41% 100 29.93 1012.0
04 12:53 SW 16 10.00 Fair CLR 93.9 68 93.9 70 43% 98 29.94 1012.4
04 11:53 S 16 G 22 10.00 Fair CLR 91.9 70 49% 98 29.96 1013.0
04 10:53 S 18 G 25 10.00 Fair CLR 90 69.1 50% 95 29.95 1012.7
04 09:53 SW 15 G 23 10.00 Fair CLR 86 69.1 57% 90 29.96 1013.2
04 08:53 S 10 10.00 Fair CLR 81 70 69% 84 29.95 1013.0
04 07:53 S 6 10.00 Fair CLR 75.9 69.1 79% 77 29.95 1012.9
04 06:53 Calm 10.00 Fair CLR 72 68 79 72 87% 29.93 1012.3
04 05:53 Calm 10.00 Fair CLR 73.9 68 82% 29.91 1011.5
04 04:53 Calm 10.00 Fair CLR 75.9 68 77% 77 29.9 1011.2
04 03:53 Calm 10.00 Fair CLR 77 69.1 77% 79 29.89 1010.7
04 02:53 Calm 10.00 Fair CLR 77 68 74% 79 29.89 1010.7
04 01:53 Calm 10.00 Fair CLR 78.1 68 71% 80 29.89 1010.9
04 00:53 Calm 10.00 Fair CLR 79 68 93.9 79 69% 81 29.89 1010.8
03 23:53 Calm 10.00 Fair CLR 81 66.9 62% 83 29.88 1010.5
03 22:53 Calm 10.00 Fair CLR 82 64.9 56% 84 29.88 1010.4
03 21:53 Calm 10.00 Fair CLR 84 64.9 53% 86 29.87 1010.1
03 20:53 S 10 10.00 Fair CLR 84.9 66 53% 87 29.85 1009.6
03 19:53 S 9 10.00 Fair CLR 88 66.9 50% 91 29.83 1008.9
03 18:53 S 10 10.00 Fair CLR 93.9 64.9 99 93.9 38% 96 29.84 1009.0
03 17:53 S 12 10.00 Fair CLR 97 64 34% 99 29.83 1008.7
03 16:53 S 16 G 24 10.00 Fair CLR 98.1 66 35% 102 29.83 1008.8
03 15:53 S 16 G 25 10.00 Fair CLR 98.1 64.9 34% 101 29.85 1009.3
03 14:53 S 16 G 28 10.00 Fair CLR 97 66.9 37% 101 29.86 1009.8
03 13:53 S 18 G 24 10.00 Fair CLR 96.1 66.9 39% 100 29.88 1010.5
03 12:53 S 16 G 22 10.00 Fair CLR 93.9 66.9 93.9 75.9 41% 98 29.9 1011.2
03 11:53 S 15 10.00 Fair CLR 91.9 66.9 44% 95 29.92 1011.7
03 10:53 S 18 G 26 10.00 Fair CLR 89.1 66.9 48% 92 29.93 1012.1
03 09:53 S 17 G 25 10.00 Fair CLR 86 68 55% 89 29.93 1012.0
03 08:53 S 17 G 25 10.00 Fair CLR 82 68 63% 85 29.93 1012.0
03 07:53 S 12 10.00 Fair CLR 78.1 66.9 69% 80 29.93 1012.1
03 06:53 S 9 10.00 Fair CLR 75.9 66 77 73 72% 77 29.92 1011.7
03 05:53 S 10 10.00 Fair CLR 77 64.9 66% 79 29.91 1011.3
03 04:53 S 9 10.00 Fair CLR 75.9 64.9 69% 78 29.9 1011.2
03 03:53 S 6 10.00 Fair CLR 73.9 64.9 74% 29.9 1011.2
03 02:53 S 6 10.00 Fair CLR 75 64.9 71% 77 29.89 1010.9
03 01:53 S 6 10.00 Fair CLR 75.9 64.9 69% 78 29.9 1011.0
Date Time (cdt) Wind (mph) Vis. (mi.) Weather Sky Cond. Air Dwpt Max. Min. Relative Humidity Wind Chill (°F) Heat Index (°F) altimeter (in) sea level (mb) 1 hr 3 hr 6 hr
6 hour
Temperature (ºF) Pressure Precipitation (in)